Retour au catalogue

STARLINK-31193

ActifCommunicationsVLEO
NORAD 58797·PAYLOAD·🇺🇸 United States

Lancé Jan 15, 2024 depuis Cape Canaveral Space Force Station

Loading…

Prochains Passages (prochaines 24 heures)

TLE

FraisSource: CelesTrak SupGP

Époque: Sep 15, 2026, 02:31 UTC

1 58797C 24012L   26258.10534722 -.00010919  00000+0 -39555-3 0  2581
2 58797  43.0023 175.4567 0001502 270.8297 157.2841 15.27577264    13

Suivez STARLINK-31193 en temps réel avec AllMySat

Download on the App Store